Weather History for Dayton, OH

Change the Weather History Date:

Friday, July 26, 2013

  Actual Average Record
Temperature  
Mean Temperature 69 °F 74 °F  
Max Temperature 81 °F 84 °F 101 °F (1901)
Min Temperature 56 °F 64 °F 52 °F (1977)
Degree Days  
Heating Degree Days 0 0  
Month to date heating degree days 0 0  
Since 1 June heating degree days 11 22  
Since 1 July heating degree days 0 0  
Cooling Degree Days 4 9  
Month to date cooling degree days 276 234  
Year to date cooling degree days 615 494  
Since 1 June cooling degree days 484 424  
Growing Degree Days 18 (Base 50)    
Moisture  
Dew Point 57 °F    
Average Humidity 66    
Maximum Humidity 86    
Minimum Humidity 45    
Precipitation  
Precipitation 0.00 in 0.12 in 1.45 in (1992)
Month to date precipitation 2.32 3.55  
Year to date precipitation 19.74 24.76  
Snow  
Snow 0.00 in 0.00 in 0.00 in ()
Month to date snowfall 0.0 0.0  
Since 1 June snowfall 0.0 0.0  
Since 1 July snowfall 0.0 0.0  
Snow Depth 0.00 in    
Sea Level Pressure  
Sea Level Pressure 30.05 in    
Wind  
Wind Speed 5 mph (SSW)    
Max Wind Speed 14 mph    
Max Gust Speed 17 mph    
Visibility 10 miles    
Events      
T = Trace of Precipitation, MM = Missing Value Source: NWS Daily Summary

Daily Weather History Graph

Daily Weather History Graph

Search for Another Location

Airport:

Trip Planner

Search our weather history database for the weather conditions in past years. The results will help you decide how hot, cold, wet, or windy it might be!

Date:

Astronomy

Jul. 26, 2013 Rise Set
Actual Time 6:30 AM EDT 8:55 PM EDT
Civil Twilight 5:59 AM EDT 9:26 PM EDT
Nautical Twilight 5:21 AM EDT 10:04 PM EDT
Astronomical Twilight 4:38 AM EDT 10:46 PM EDT
Moon 11:09 PM EDT 11:05 AM EDT
Length of Visible Light 15h 27m
Length of Day
14h 25m
Waning Gibbous, 80% of the Moon is Illuminated
Jul 26
Waning Gibbous
Jul 29
Last Quarter
Aug 6
New
Aug 14
First Quarter
Aug 20
Full

Hourly Weather History & Observations

Time (EDT) Temp. Heat Index Dew Point Humidity Pressure Visibility Wind Dir Wind Speed Gust Speed Precip Events Conditions
12:56 AM 64.0 °F - 55.0 °F 73% 30.11 in 10.0 mi Calm Calm - N/A   Partly Cloudy
1:56 AM 62.1 °F - 55.0 °F 78% 30.10 in 10.0 mi NE 3.5 mph - N/A   Partly Cloudy
2:56 AM 61.0 °F - 55.0 °F 81% 30.10 in 10.0 mi Calm Calm - N/A   Clear
3:56 AM 61.0 °F - 54.0 °F 78% 30.08 in 10.0 mi Calm Calm - N/A   Clear
4:56 AM 57.9 °F - 54.0 °F 87% 30.09 in 10.0 mi Calm Calm - N/A   Clear
5:56 AM 57.0 °F - 53.1 °F 87% 30.09 in 10.0 mi Calm Calm - N/A   Partly Cloudy
6:56 AM 60.1 °F - 55.0 °F 83% 30.08 in 10.0 mi ESE 3.5 mph - N/A   Partly Cloudy
7:56 AM 63.0 °F - 57.0 °F 81% 30.09 in 10.0 mi Calm Calm - N/A   Scattered Clouds
8:56 AM 66.9 °F - 57.0 °F 70% 30.10 in 10.0 mi SSE 5.8 mph - N/A   Scattered Clouds
9:56 AM 71.1 °F - 57.0 °F 61% 30.10 in 10.0 mi Calm Calm - N/A   Scattered Clouds
10:56 AM 73.0 °F - 55.0 °F 53% 30.10 in 10.0 mi Calm Calm - N/A   Scattered Clouds
11:56 AM 75.9 °F - 55.9 °F 50% 30.09 in 10.0 mi South 5.8 mph - N/A   Scattered Clouds
12:56 PM 77.0 °F - 55.9 °F 48% 30.07 in 10.0 mi Variable 4.6 mph - N/A   Scattered Clouds
1:56 PM 77.0 °F - 55.9 °F 48% 30.06 in 10.0 mi SSE 4.6 mph - N/A   Scattered Clouds
2:56 PM 80.1 °F 80.6 °F 57.9 °F 47% 30.04 in 10.0 mi SW 10.4 mph - N/A   Scattered Clouds
3:56 PM 80.1 °F 80.4 °F 57.0 °F 45% 30.02 in 10.0 mi SW 11.5 mph 16.1 mph N/A   Scattered Clouds
4:56 PM 81.0 °F 81.1 °F 57.9 °F 45% 30.01 in 10.0 mi WSW 11.5 mph - N/A   Mostly Cloudy
5:56 PM 78.1 °F - 55.9 °F 46% 30.01 in 10.0 mi SW 9.2 mph - N/A   Mostly Cloudy
6:56 PM 78.1 °F - 57.9 °F 50% 30.00 in 10.0 mi SW 6.9 mph - N/A   Mostly Cloudy
7:56 PM 75.0 °F - 57.9 °F 55% 29.99 in 10.0 mi WSW 6.9 mph - N/A   Mostly Cloudy
8:56 PM 72.0 °F - 59.0 °F 64% 29.99 in 10.0 mi SW 8.1 mph - N/A   Mostly Cloudy
9:56 PM 71.1 °F - 59.0 °F 66% 29.99 in 10.0 mi SW 6.9 mph - N/A   Overcast
10:56 PM 71.1 °F - 60.1 °F 68% 29.99 in 10.0 mi SW 8.1 mph - N/A   Overcast
11:56 PM 71.1 °F - 60.1 °F 68% 29.97 in 10.0 mi SSW 6.9 mph - N/A   Mostly Cloudy